Weather History for Cheyenne, WY

Change the Weather History Date:

Monday, January 14, 2013

  Actual Average Record
Temperature  
Mean Temperature -1 °F 29 °F  
Max Temperature 12 °F 40 °F 59 °F (2006)
Min Temperature -15 °F 18 °F -27 °F (1888)
Degree Days  
Heating Degree Days 66 36  
Month to date heating degree days 607 505  
Since 1 July heating degree days 3309 3408  
Cooling Degree Days 0 0  
Month to date cooling degree days 0 0  
Year to date cooling degree days 0 0  
Moisture  
Dew Point -12 °F    
Average Humidity 64    
Maximum Humidity 87    
Minimum Humidity 41    
Precipitation  
Precipitation 0.00 in 0.01 in 0.48 in (1884)
Month to date precipitation 0.12 0.15  
Year to date precipitation 0.12 0.15  
Snow  
Snow 0.00 in 0.20 in 4.80 in (1884)
Month to date snowfall 2.9 2.7  
Since 1 July snowfall 28.3 25.4  
Snow Depth 2.00 in    
Sea Level Pressure  
Sea Level Pressure 30.37 in    
Wind  
Wind Speed 9 mph (West)    
Max Wind Speed 16 mph    
Max Gust Speed 18 mph    
Visibility 10 miles    
Events      
T = Trace of Precipitation, MM = Missing Value Source: NWS Daily Summary

Daily Weather History Graph

Daily Weather History Graph

Search for Another Location

Airport:

Trip Planner

Search our weather history database for the weather conditions in past years. The results will help you decide how hot, cold, wet, or windy it might be!

Date:

Astronomy

Jan. 14, 2013 Rise Set
Actual Time 7:22 AM MST 4:54 PM MST
Civil Twilight 6:52 AM MST 5:24 PM MST
Nautical Twilight 6:18 AM MST 5:59 PM MST
Astronomical Twilight 5:45 AM MST 6:32 PM MST
Moon 8:55 AM MST (1/14) 8:45 PM MST (1/14)
Length of Visible Light 10h 32m
Length of Day
9h 31m
Waxing Crescent, 12% of the Moon is Illuminated
Jan 14
Waxing Crescent
Jan 18
First Quarter
Jan 26
Full
Feb 3
Last Quarter
Feb 10
New

Hourly Weather History & Observations

Time (MST) Temp. Windchill Dew Point Humidity Pressure Visibility Wind Dir Wind Speed Gust Speed Precip Events Conditions
12:53 AM -9.0 °F -28.4 °F -15.0 °F 75% 30.35 in 10.0 mi West 11.5 mph - N/A   Clear
1:53 AM -11.9 °F -32.0 °F -18.0 °F 74% 30.38 in 10.0 mi West 11.5 mph - N/A   Clear
2:53 AM -9.9 °F -28.6 °F -17.0 °F 71% 30.37 in 10.0 mi WNW 10.4 mph - N/A   Clear
3:53 AM -11.9 °F -32.0 °F -18.9 °F 71% 30.38 in 10.0 mi West 11.5 mph - N/A   Clear
4:53 AM -14.1 °F -34.7 °F -20.0 °F 75% 30.40 in 10.0 mi West 11.5 mph - N/A   Clear
5:53 AM -13.0 °F -34.3 °F -20.0 °F 71% 30.43 in 10.0 mi West 12.7 mph - N/A   Clear
6:53 AM -11.9 °F -32.0 °F -18.9 °F 71% 30.49 in 10.0 mi West 11.5 mph - N/A   Clear
7:53 AM -13.0 °F -34.3 °F -20.0 °F 71% 30.53 in 10.0 mi WNW 12.7 mph - N/A   Clear
8:53 AM -7.1 °F -19.9 °F -15.0 °F 68% 30.49 in 10.0 mi West 5.8 mph - N/A   Clear
9:53 AM -0.0 °F -16.3 °F -11.0 °F 60% 30.43 in 10.0 mi West 10.4 mph - N/A   Clear
10:53 AM 6.1 °F -5.6 °F -7.1 °F 55% 30.38 in 10.0 mi WNW 6.9 mph - N/A   Clear
11:53 AM 8.1 °F -2.0 °F -9.9 °F 44% 30.33 in 10.0 mi WSW 5.8 mph - N/A   Clear
12:53 PM 10.9 °F 2.9 °F -9.0 °F 40% 30.29 in 10.0 mi NNW 4.6 mph - N/A   Clear
1:53 PM 12.0 °F 4.1 °F -6.0 °F 44% 30.29 in 10.0 mi North 4.6 mph - N/A   Clear
2:53 PM 10.4 °F 2.2 °F -5.8 °F 48% 29.94 in 10.0 mi ENE 4.6 mph - N/A   Clear
3:53 PM 9.0 °F -2.2 °F -6.0 °F 51% 30.34 in 10.0 mi NNE 6.9 mph - N/A   Clear
4:53 PM 6.1 °F -0.9 °F -7.1 °F 55% 30.38 in 10.0 mi WNW 3.5 mph - N/A   Clear
5:53 PM 1.9 °F -7.6 °F -8.0 °F 63% 30.41 in 10.0 mi SW 4.6 mph - N/A   Clear
6:53 PM -2.0 °F -17.7 °F -7.1 °F 79% 30.42 in 10.0 mi SW 9.2 mph - N/A   Clear
7:53 PM -4.0 °F -20.2 °F -8.0 °F 83% 30.43 in 8.0 mi SW 9.2 mph - N/A   Clear
8:53 PM -6.0 °F -21.5 °F -11.0 °F 79% 30.40 in 10.0 mi West 8.1 mph - N/A   Clear
9:53 PM -6.0 °F -23.6 °F -11.0 °F 79% 30.36 in 10.0 mi West 10.4 mph - N/A   Clear
10:53 PM -0.9 °F -16.4 °F -7.1 °F 75% 30.30 in 10.0 mi West 9.2 mph - N/A   Clear
11:53 PM -0.0 °F -13.0 °F -13.0 °F 54% 30.30 in 10.0 mi West 6.9 mph - N/A   Clear